Flag for Germany Weather past 2 weeks in Rathenow, Brandenburg, Germany

Now
42 °F

Low clouds.


Feels Like: 40 °F
Forecast: 49 / 68 °F
Wind: 3 mph from North

Location: Neuruppin


UV Index: 3 (Moderate)

Visibility: 6 mi


Pressure: 30.14 "Hg

Humidity: 96%

Dew point: 41 °F

Location of RathenowLocation

Historic Weather in Rathenow

°F

Rathenow temperature yesterday

Maximum temperature yesterday: 50 °F (at 3:00 PM)
Minimum temperature yesterday: 42 °F (at 7:00 AM)
Average temperature yesterday: 46 °F

Past Weeks' High & Low Weather Summary

 TemperatureHumidityPressure
High67 °F (Apr 7, 3:00 PM)98% (Apr 12, 6:00 AM)30.47 "Hg (Apr 12, 6:00 AM)
Low33 °F (Apr 16, 7:00 AM)31% (Apr 16, 1:00 PM)29.69 "Hg (Apr 14, 8:00 AM)
Average48 °F75%30.02 "Hg
* Reported Apr 4 8:00 AM — Apr 19 8:00 AM, Rathenow, Weather by CustomWeather, © 2014

Note: Actual official high and low records may vary slightly from our data, if they occured in-between our weather recording intervals... More about our weather records

Advertising

Historic Weather Conditions — Data for Previous 24 hours

 ConditionsComfort  
Time TempWeatherWind HumidityBarometerVisibility
8:00 AM
Apr 19
40 °FLow clouds.2 mph97%30.12 "Hg5 mi
7:00 AM39 °FSunny.3 mph98%30.11 "Hg5 mi
6:00 AM39 °FClear.3 mph97%30.10 "Hg4 mi
5:00 AM39 °FClear.2 mph95%30.09 "Hg6 mi
4:00 AM40 °FClear.1 mph94%30.08 "Hg6 mi
3:00 AM41 °FClear.3 mph95%30.07 "Hg6 mi
2:00 AM41 °FClear.2 mph94%30.04 "Hg6 mi
1:00 AM43 °FClear.2 mph90%30.02 "Hg6 mi
12:00 AM44 °FClear.2 mph86%30.01 "Hg6 mi
11:00 PM
Apr 18
45 °FOvercast.2 mph83%29.98 "Hg6 mi
10:00 PM45 °FOvercast.3 mph80%29.96 "Hg6 mi
9:00 PM46 °FPassing clouds.2 mph76%29.93 "Hg7 mi
8:00 PM48 °FPassing clouds.2 mph71%29.90 "Hg6 mi
7:00 PM49 °FSunny.2 mph60%29.88 "Hg6 mi
6:00 PM49 °FSunny.3 mph65%29.85 "Hg6 mi
5:00 PM49 °FScattered clouds.2 mph67%29.84 "Hg6 mi
4:00 PM50 °FPassing clouds.1 mph61%29.82 "Hg6 mi
3:00 PM50 °FScattered clouds.2 mph69%29.82 "Hg6 mi
2:00 PM49 °FScattered clouds.1 mph68%29.81 "Hg6 mi
1:00 PM43 °FOvercast.5 mph87%29.81 "Hg4 mi
12:00 PM49 °FPartly sunny.1 mph70%29.79 "Hg6 mi
11:00 AM46 °FOvercast.2 mph82%29.78 "Hg6 mi
10:00 AM44 °FOvercast.3 mph87%29.77 "Hg6 mi
9:00 AM44 °FOvercast.3 mph88%29.77 "Hg6 mi
Weather by CustomWeather, © 2014

See weather overview